{"data":{"norad_id":63776,"epoch":"2026-05-24T23:06:36.167040Z","epoch_age_seconds":81455,"freshness":"FRESH","line1":"1 63776U 25091B   26144.96291860  .00014722  00000+0  54317-3 0  9992","line2":"2 63776  43.0007 342.0882 0001364 276.2126  83.8570 15.27595053 60562","mean_motion":15.27595053,"eccentricity":0.0001364,"inclination_deg":43.0007,"raan_deg":342.0882,"arg_perigee_deg":276.2126,"mean_anomaly_deg":83.857,"bstar":0.00054317,"rev_number":6056,"period_min":94.265819804275,"perigee_km":482.06816267706,"apogee_km":483.93988194794,"semimajor_km":6861.1410223125,"source":"CELESTRAK","updated_at":"2026-05-25T13:38:20.131581Z"}}